Saint Ignace, MI

9:32 AM EST on February 19, 2017 (GMT -0500)
Mackinac Island

Weather History for KMCD - October, 2012

Change the Weather History Date:

Monday, October 8, 2012

  Actual Average Record
Temperature  
Mean Temperature 48 °F -  
Max Temperature 54 °F 55 °F 78 °F (2007)
Min Temperature 41 °F 43 °F 28 °F (2001)
Degree Days  
Heating Degree Days 18    
Moisture  
Dew Point 31 °F    
Average Humidity 54    
Maximum Humidity 73    
Minimum Humidity 35    
Precipitation  
Precipitation 0.00 in - - ()
Sea Level Pressure  
Sea Level Pressure 29.97 in    
Wind  
Wind Speed 12 mph (SSW)    
Max Wind Speed 22 mph    
Max Gust Speed 33 mph    
Visibility 10 miles    
Events Rain    
Averages and records for this station are not official NWS values.
T = Trace of Precipitation, MM = Missing Value Source: NWS Daily Summary

Daily Weather History Graph

Daily Weather History Graph

Search for Another Location

Airport or City:

Trip Planner

Search our weather history database for the weather conditions in past years. The results will help you decide how hot, cold, wet, or windy it might be!

Date:

Astronomy

Oct. 08, 2012 Rise Set
Actual Time 7:46 AM EDT 7:04 PM EDT
Civil Twilight 7:16 AM EDT 7:34 PM EDT
Nautical Twilight 6:42 AM EDT 8:08 PM EDT
Astronomical Twilight 6:07 AM EDT 8:43 PM EDT
Moon 12:04 AM EDT (10/8) 3:12 PM EDT (10/8)
Length of Visible Light 12h 17m
Length of Day
11h 17m
Waning Gibbous, 46% of the Moon is Illuminated
Oct 8
Waning Gibbous
Oct 15
New
Oct 21
First Quarter
Oct 29
Full
Nov 6
Last Quarter

Hourly Weather History & Observations

Time (EDT) Temp. Windchill Dew Point Humidity Pressure Visibility Wind Dir Wind Speed Gust Speed Precip Events Conditions
12:14 AM 41.7 °F 35.2 °F 33.1 °F 71% 29.99 in 10.0 mi South 11.5 mph 21.9 mph N/A   Clear
12:34 AM 41.4 °F 35.2 °F 33.3 °F 73% 29.99 in 10.0 mi South 10.4 mph 20.7 mph N/A   Clear
12:55 AM 42.1 °F 34.5 °F 32.9 °F 70% 29.99 in 10.0 mi South 15.0 mph 23.0 mph N/A   Scattered Clouds
1:14 AM 42.1 °F 35.7 °F 32.5 °F 69% 29.99 in 10.0 mi SSW 11.5 mph 21.9 mph N/A   Mostly Cloudy
1:34 AM 41.9 °F 35.9 °F 32.9 °F 70% 29.99 in 10.0 mi SSW 10.4 mph 19.6 mph N/A   Mostly Cloudy
1:55 AM 41.9 °F 35.0 °F 33.1 °F 71% 29.99 in 10.0 mi SSW 12.7 mph 17.3 mph N/A   Overcast
2:14 AM 41.9 °F 34.3 °F 33.4 °F 72% 29.99 in 10.0 mi SSW 15.0 mph 19.6 mph N/A   Overcast
2:34 AM 42.3 °F 34.8 °F 33.1 °F 70% 29.99 in 10.0 mi SSW 15.0 mph 21.9 mph N/A   Overcast
2:54 AM 42.8 °F 36.2 °F 33.1 °F 69% 30.00 in 10.0 mi SSW 12.7 mph 20.7 mph N/A   Overcast
3:14 AM 42.4 °F 35.0 °F 32.9 °F 69% 29.99 in 10.0 mi SSW 15.0 mph 20.7 mph N/A   Overcast
3:34 AM 42.6 °F 37.2 °F 32.9 °F 68% 29.99 in 10.0 mi SSW 9.2 mph 20.7 mph N/A   Overcast
3:54 AM 42.8 °F 37.0 °F 33.3 °F 69% 29.99 in 10.0 mi SSW 10.4 mph 19.6 mph N/A   Overcast
4:14 AM 43.0 °F 36.0 °F 33.3 °F 69% 29.98 in 10.0 mi SSW 13.8 mph 21.9 mph N/A   Overcast
4:34 AM 42.8 °F 36.2 °F 33.1 °F 69% 29.98 in 10.0 mi SSW 12.7 mph 17.3 mph N/A   Mostly Cloudy
4:54 AM 42.8 °F 36.6 °F 33.1 °F 69% 29.99 in 10.0 mi SSW 11.5 mph 20.7 mph N/A   Mostly Cloudy
5:14 AM 42.8 °F 36.6 °F 33.3 °F 69% 29.99 in 10.0 mi SSW 11.5 mph 20.7 mph N/A   Scattered Clouds
5:34 AM 42.8 °F 36.6 °F 33.4 °F 70% 29.99 in 10.0 mi SSW 11.5 mph 17.3 mph N/A   Scattered Clouds
5:54 AM 42.8 °F 35.8 °F 33.8 °F 70% 29.99 in 10.0 mi SSW 13.8 mph 17.3 mph N/A   Mostly Cloudy
6:14 AM 42.4 °F 36.1 °F 33.1 °F 69% 30.00 in 10.0 mi SSW 11.5 mph 18.4 mph N/A   Mostly Cloudy
6:34 AM 42.6 °F 36.8 °F 32.9 °F 68% 30.00 in 10.0 mi South 10.4 mph 18.4 mph N/A   Scattered Clouds
6:54 AM 42.3 °F 36.8 °F 32.4 °F 68% 30.00 in 10.0 mi SSW 9.2 mph 17.3 mph N/A   Mostly Cloudy
7:14 AM 42.1 °F 36.6 °F 32.0 °F 67% 30.00 in 10.0 mi SSW 9.2 mph 18.4 mph N/A   Mostly Cloudy
7:35 AM 42.1 °F 35.2 °F 32.2 °F 68% 30.00 in 10.0 mi South 12.7 mph 21.9 mph N/A   Scattered Clouds
7:54 AM 41.7 °F 36.1 °F 32.0 °F 68% 30.00 in 10.0 mi South 9.2 mph 18.4 mph N/A   Clear
8:14 AM 41.4 °F 35.2 °F 31.8 °F 69% 30.01 in 10.0 mi SSW 10.4 mph 18.4 mph N/A   Scattered Clouds
8:35 AM 41.5 °F 35.0 °F 31.6 °F 68% 30.01 in 10.0 mi South 11.5 mph 20.7 mph N/A   Scattered Clouds
8:54 AM 41.9 °F 35.4 °F 31.1 °F 66% 30.01 in 10.0 mi South 11.5 mph 19.6 mph N/A   Clear
9:14 AM 42.3 °F 35.5 °F 31.1 °F 65% 30.01 in 10.0 mi South 12.7 mph 20.7 mph N/A   Clear
9:35 AM 42.8 °F 36.6 °F 30.6 °F 62% 30.01 in 10.0 mi South 11.5 mph 19.6 mph N/A   Clear
9:54 AM 43.2 °F 37.4 °F 30.0 °F 60% 30.01 in 10.0 mi South 10.4 mph 18.4 mph N/A   Clear
10:14 AM 44.6 °F 38.8 °F 30.0 °F 57% 30.01 in 10.0 mi South 11.5 mph 19.6 mph N/A   Clear
10:35 AM 45.3 °F 40.6 °F 30.0 °F 55% 30.01 in 10.0 mi SSW 9.2 mph 19.6 mph N/A   Clear
10:54 AM 46.9 °F - 29.3 °F 50% 30.01 in 10.0 mi South 12.7 mph 23.0 mph N/A   Clear
11:14 AM 48.7 °F - 29.1 °F 47% 30.00 in 10.0 mi SSW 12.7 mph 23.0 mph N/A   Clear
11:35 AM 50.0 °F - 28.6 °F 44% 30.00 in 10.0 mi SSW 10.4 mph 24.2 mph N/A   Clear
11:54 AM 50.4 °F - 28.9 °F 44% 30.00 in 10.0 mi SSW 12.7 mph 23.0 mph N/A   Clear
12:14 PM 51.3 °F - 29.1 °F 43% 30.00 in 10.0 mi SSW 13.8 mph 21.9 mph N/A   Clear
12:35 PM 52.5 °F - 29.7 °F 42% 30.00 in 10.0 mi SSW 15.0 mph 26.5 mph N/A   Clear
12:54 PM 52.7 °F - 28.2 °F 39% 30.00 in 10.0 mi SSW 12.7 mph 24.2 mph N/A   Clear
1:14 PM 53.6 °F - 28.9 °F 39% 29.99 in 10.0 mi SW 12.7 mph 24.2 mph N/A   Clear
1:35 PM 53.8 °F - 27.5 °F 36% 29.98 in 10.0 mi SSW 12.7 mph 21.9 mph N/A   Clear
1:54 PM 53.8 °F - 26.8 °F 35% 29.98 in 10.0 mi SW 10.4 mph 21.9 mph N/A   Clear
2:14 PM 54.1 °F - 26.8 °F 35% 29.97 in 10.0 mi SW 17.3 mph 26.5 mph N/A   Scattered Clouds
2:34 PM 54.1 °F - 27.9 °F 36% 29.97 in 10.0 mi SSW 13.8 mph 26.5 mph N/A   Mostly Cloudy
2:54 PM 53.6 °F - 27.9 °F 37% 29.96 in 10.0 mi SW 13.8 mph 21.9 mph N/A   Mostly Cloudy
3:14 PM 53.2 °F - 28.8 °F 39% 29.96 in 10.0 mi SSW 15.0 mph 24.2 mph N/A   Overcast
3:34 PM 53.4 °F - 28.4 °F 38% 29.96 in 10.0 mi SSW 15.0 mph 26.5 mph N/A   Overcast
4:15 PM 53.6 °F - 30.2 °F 41% 29.95 in 10.0 mi SSW 11.5 mph 23.0 mph N/A   Mostly Cloudy
4:34 PM 54.1 °F - 29.5 °F 39% 29.95 in 10.0 mi South 13.8 mph 25.3 mph N/A   Mostly Cloudy
4:54 PM 53.6 °F - 30.6 °F 41% 29.94 in 10.0 mi SSW 10.4 mph 21.9 mph N/A   Mostly Cloudy
5:15 PM 53.6 °F - 29.7 °F 40% 29.93 in 10.0 mi SSW 11.5 mph 19.6 mph N/A   Overcast
5:34 PM 53.6 °F - 28.9 °F 39% 29.93 in 10.0 mi SSW 12.7 mph 19.6 mph N/A   Overcast
5:54 PM 53.6 °F - 28.2 °F 38% 29.93 in 10.0 mi South 10.4 mph 23.0 mph N/A   Overcast
6:14 PM 53.1 °F - 28.8 °F 39% 29.92 in 10.0 mi South 10.4 mph 21.9 mph N/A   Overcast
6:34 PM 52.9 °F - 28.9 °F 40% 29.92 in 10.0 mi South 12.7 mph 23.0 mph N/A   Overcast
6:54 PM 52.7 °F - 29.3 °F 41% 29.92 in 10.0 mi South 10.4 mph 18.4 mph N/A   Mostly Cloudy
7:14 PM 52.3 °F - 29.8 °F 42% 29.92 in 10.0 mi South 6.9 mph 17.3 mph N/A   Overcast
7:34 PM 52.3 °F - 30.0 °F 42% 29.92 in 10.0 mi South 12.7 mph 18.4 mph N/A   Overcast
7:54 PM 52.2 °F - 30.6 °F 44% 29.92 in 10.0 mi South 11.5 mph 20.7 mph N/A   Overcast
8:35 PM 52.0 °F - 30.9 °F 45% 29.92 in 10.0 mi South 8.1 mph 23.0 mph N/A   Mostly Cloudy
8:54 PM 51.8 °F - 31.1 °F 45% 29.92 in 10.0 mi South 12.7 mph 25.3 mph N/A   Overcast
9:14 PM 51.4 °F - 31.6 °F 47% 29.92 in 10.0 mi South 15.0 mph 24.2 mph N/A   Overcast
10:14 PM 50.9 °F - 30.7 °F 46% 29.92 in 10.0 mi South 16.1 mph 25.3 mph N/A   Overcast
10:35 PM 50.9 °F - 30.2 °F 45% 29.92 in 10.0 mi South 13.8 mph 24.2 mph N/A   Overcast
10:54 PM 50.0 °F - 31.6 °F 49% 29.92 in 10.0 mi South 12.7 mph 21.9 mph N/A Rain Light Rain
11:14 PM 50.4 °F - 30.6 °F 47% 29.91 in 10.0 mi South 13.8 mph 28.8 mph N/A   Overcast
11:34 PM 50.9 °F - 29.8 °F 44% 29.91 in 10.0 mi South 15.0 mph 28.8 mph N/A   Overcast
11:54 PM 51.1 °F - 28.9 °F 43% 29.91 in 10.0 mi South 21.9 mph 33.4 mph N/A   Overcast